Regional Weather Roundup
Issued by NWS Charleston, SC

Current Version | Previous Version | Text Only | Print | Product List | Glossary Off
Versions: 1 2 3 4 5 6 7 8 9 10 11 12 13 14 15 16 17 18 19 20 21 22 23 24 25 26 27 28 29 30 31 32 33 34 35 36 37 38 39 40 41 42 43 44 45 46 47 48 49 50

000
ASUS42 KCHS 291011
RWRCHS

REGIONAL WEATHER ROUNDUP
NATIONAL WEATHER SERVICE CHARLESTON SC
500 AM EST THU JAN 29 2015

NOTE: "FAIR" INDICATES FEW OR NO CLOUDS BELOW 12,000 FEET WITH NO
SIGNIFICANT WEATHER AND/OR OBSTRUCTIONS TO VISIBILITY.

NOT ALL STATIONS ARE QUALITY CONTROLLED BY THE NATIONAL
WEATHER SERVICE. USE DATA WITH CAUTION...ESPECIALLY
DEWPOINT OBSERVATIONS.

SCZ027-030-031-034>040-042>050-291100-
...SOUTHEAST SOUTH CAROLINA...

CITY           SKY/WX    TMP DP  RH WIND       PRES   REMARKS
N CHARLESTON   CLEAR     30  27  88 CALM      30.34S
WATERFRONT PRK   N/A     41 N/A N/A N5          N/A
MOUNT PLEASANT FAIR     N/A N/A N/A CALM      30.33S
PINOPOLIS      NOT AVBL
MONCKS CORNER  FAIR      28  27  93 CALM      30.33S
SUMMERVILLE    FAIR      28  28 100 CALM      30.34S
BEAUFORT MCAS  CLEAR     32  30  92 CALM      30.34R
BEAUFORT ARPT  FAIR      36  36 100 NE3       30.33R
HILTON HEAD IS NOT AVBL
WALTERBORO     FAIR      28 N/A N/A CALM      30.34S
ALLENDALE      FAIR      28  27  93 CALM      30.33S

...SOUTHERN MIDLANDS AND PEE DEE...

CITY           SKY/WX    TMP DP  RH WIND       PRES   REMARKS
GEORGETOWN     NOT AVBL
KINGSTREE      NOT AVBL
ORANGEBURG     CLEAR     27  23  85 CALM      30.33S
BARNWELL         N/A     28  27  93 CALM      30.34R
AIKEN          FAIR      28  25  86 CALM      30.35S
MANNING        FAIR      28  28 100 CALM      30.33F
COLUMBIA       CLEAR     26  22  84 W5        30.33S WCI  20
SUMTER         CLEAR     27  22  81 NW1       30.32S
FLORENCE       CLEAR     26  22  84 CALM      30.33S
MYRTLE BEACH   FAIR      28  23  80 CALM      30.36S
N MYRTLE BEACH CLEAR     25  23  92 CALM      30.33S

$$

GAZ063-065-086>088-099>101-113>116-118-119-134>141-150-291100-
...SOUTHEAST GEORGIA...

CITY           SKY/WX    TMP DP  RH WIND       PRES   REMARKS
SAVANNAH ARPT  CLEAR     30  26  85 CALM      30.34R
HUNTER AAF     CLEAR     31  28  88 NW2       30.31S
FORT STEWART   CLEAR     28  26  89 CALM      30.32R
STATESBORO     CLEAR     27  27 100 CALM      30.33R
SYLVANIA       SUNNY     29  29 100 CALM      30.34R
CLAXTON        FAIR      28  28 100 CALM      30.34R

...CSRA...CENTRAL AND FAR SOUTHEAST GEORGIA...

CITY           SKY/WX    TMP DP  RH WIND       PRES   REMARKS
THOMSON        PTCLDY    29  28  97 CALM      30.38R
AUGUSTA-BUSH   PTCLDY    25  22  88 CALM      30.35R
AUGUSTA-DANIEL PTCLDY    35  23  61 CALM      30.33R
SWAINSBORO     FAIR      32  27  80 CALM      30.34R
VIDALIA        CLEAR     32  30  93 CALM      30.33R
EASTMAN        FAIR      29  29 100 CALM      30.37R
HAZLEHURST     FAIR      35  32  90 CALM      30.32S
ALMA           CLEAR     29  28  96 CALM      30.33R
WAYCROSS       CLEAR     33  32  96 N5        30.33R WCI  29
JESUP          FAIR      32  32 100 CALM      30.33R
BAXLEY         FAIR      32  32 100 CALM      30.33R
BRUNSWICK      CLEAR     32  32 100 CALM      30.32S
SAINT SIMONS   CLEAR     35  32  88 CALM      30.31F

$$

SCZ027-028-034-036>038-045-046-048>050-GAZ119-141-291100-
...LAKE AND SUPPLEMENTAL COASTAL OBSERVATIONS...

STATION/POSITION TIME  TEMP    WIND        PRES    WAVE   SWELL
                       AIR SEA DIR/SP/G            HT/PER HT/PER/DIR
                 (UTC) (F)     (DEG/KT/KT) (MB)    (FT/S) (FT/S/D)
UPR LAKE MARION  NOT AVBL
WINYAH BAY       0845   31     310/  4     1026.0
LAKE MURRAY      0900   38     100/  2/  3 1026.4R
ACE BASIN NERRS  NOT AVBL
FORT PULASKI     0900   47 52   60/ 10/ 11 1027.1F
SAPELO ISLAND    0900   37     360/  2     1026.0F

$$

ANZ835-935-AMZ111-154-330-350-352-354-370-450-454-472-291100-
...C-MAN AND BUOY OBSERVATIONS...

STATION/POSITION TIME  TEMP    WIND        PRES    WAVE   SWELL
                       AIR SEA DIR/SP/G            HT/PER HT/PER/DIR
                 (UTC) (F)     (DEG/KT/KT) (MB)    (FT/S) (FT/S/D)
BUOY 41004       0950   51 67   30/ 10/ 14 1025.9F   3/ 5   3/ 5
BUOY 41008       0950   51 54   60/ 10/ 12 1025.9F   3/12   2/ 90/12
FOLLY BEACH CMAN 0900   45      30/  8/  9 1027.3F
CAPERS NEARSHORE 0900   46      50/ 10/ 12   N/A
FRIPP NEARSHORE  0900   48      60/  8/ 10 1025.9S


STATION/POSITION TIME  TEMP    WIND        PRES    WAVE   SWELL
                       AIR SEA DIR/SP/G            HT/PER HT/PER/DIR
                 (UTC) (F)     (DEG/KT/KT) (MB)    (FT/S) (FT/S/D)
5E ST. MARYS GA  NOT AVBL
FRYING PAN BUOY  0950   47 65   20/ 12/ 16 1026.7F   4/ 6   3/ 60/ 6
BUOY 41025       0950   40 71  350/ 16/ 21 1025.3S   6/11   5/ 30/11
CAPE LOOKOUT NC  0900   36      20/  9/ 10 1026.6R
BUOY 41002       0950   56 72  350/ 16/ 21 1024.0R   9/ 8   7/ 20/ 8
BUOY 41010       0920   62 75   40/ 12/ 17 1023.4F
ST AUGUSTINE FL  1000   54      40/ 12/ 13 1025.6F


$$


USA.gov is the U.S. government's official web portal to all federal, state and local government web resources and services.